Weather History for Provo, UT

Change the Weather History Date:

Saturday, December 1, 2012

  Actual Average Record
Temperature  
Mean Temperature 48 °F -  
Max Temperature 55 °F 39 °F 57 °F (2008)
Min Temperature 42 °F 24 °F 12 °F (2001)
Degree Days  
Heating Degree Days 16    
Moisture  
Dew Point 38 °F    
Average Humidity 68    
Maximum Humidity 81    
Minimum Humidity 51    
Precipitation  
Precipitation 0.00 in - - ()
Sea Level Pressure  
Sea Level Pressure 30.04 in    
Wind  
Wind Speed 4 mph (ESE)    
Max Wind Speed 15 mph    
Max Gust Speed -    
Visibility 11 miles    
Events      
Averages and records for this station are not official NWS values.
T = Trace of Precipitation, MM = Missing Value Source: NWS Daily Summary

Daily Weather History Graph

Daily Weather History Graph

Search for Another Location

Airport:

Trip Planner

Search our weather history database for the weather conditions in past years. The results will help you decide how hot, cold, wet, or windy it might be!

Date:

Astronomy

Dec. 01, 2012 Rise Set
Actual Time 7:30 AM MST 5:01 PM MST
Civil Twilight 7:00 AM MST 5:31 PM MST
Nautical Twilight 6:26 AM MST 6:05 PM MST
Astronomical Twilight 5:54 AM MST 6:38 PM MST
Moon 7:55 PM MST (12/1) 9:45 AM MST (12/1)
Length of Visible Light 10h 31m
Length of Day
9h 30m
Waning Gibbous, 91% of the Moon is Illuminated
Dec 1
Waning Gibbous
Dec 6
Last Quarter
Dec 13
New
Dec 19
First Quarter
Dec 28
Full

Hourly Weather History & Observations

Time (MST) Temp. Windchill Dew Point Humidity Pressure Visibility Wind Dir Wind Speed Gust Speed Precip Events Conditions
12:15 AM 50.0 °F - 39.2 °F 66% 30.02 in 10.0 mi North 3.5 mph - N/A   Overcast
12:35 AM 51.8 °F - 41.0 °F 67% 30.02 in 10.0 mi Calm Calm - N/A   Overcast
12:55 AM 51.8 °F - 41.0 °F 67% 30.02 in 10.0 mi Calm Calm - N/A   Overcast
1:15 AM 51.8 °F - 39.2 °F 62% 30.02 in 10.0 mi NNW 3.5 mph - N/A   Overcast
1:55 AM 50.0 °F - 39.2 °F 66% 30.03 in 10.0 mi ENE 4.6 mph - N/A   Overcast
2:15 AM 46.4 °F 44.3 °F 39.2 °F 76% 30.03 in 10.0 mi West 4.6 mph - N/A   Mostly Cloudy
2:35 AM 48.2 °F - 39.2 °F 71% 30.03 in 10.0 mi East 5.8 mph - N/A   Scattered Clouds
2:55 AM 48.2 °F - 39.2 °F 71% 30.03 in 10.0 mi North 3.5 mph - N/A   Mostly Cloudy
3:15 AM 48.2 °F - 39.2 °F 71% 30.05 in 10.0 mi WSW 4.6 mph - N/A   Overcast
3:35 AM 46.4 °F 44.3 °F 39.2 °F 76% 30.05 in 10.0 mi East 4.6 mph - N/A   Mostly Cloudy
4:15 AM 46.4 °F 44.3 °F 37.4 °F 71% 30.04 in 10.0 mi NNE 4.6 mph - N/A   Clear
4:35 AM 46.4 °F 42.9 °F 39.2 °F 76% 30.04 in 10.0 mi NNE 6.9 mph - N/A   Clear
5:15 AM 46.4 °F - 39.2 °F 76% 30.04 in 10.0 mi Calm Calm - N/A   Mostly Cloudy
5:35 AM 46.4 °F - 37.4 °F 71% 30.04 in 10.0 mi Calm Calm - N/A   Mostly Cloudy
6:15 AM 48.2 °F - 37.4 °F 66% 30.05 in 10.0 mi SSE 10.4 mph - N/A   Partly Cloudy
6:35 AM 46.4 °F 45.2 °F 37.4 °F 71% 30.06 in 10.0 mi SE 3.5 mph - N/A   Clear
6:47 AM 48.2 °F - 37.4 °F 66% 30.07 in 15.0 mi Calm Calm - N/A   Mostly Cloudy
9:50 AM 48.2 °F - 39.2 °F 71% 30.10 in 15.0 mi East 4.6 mph - N/A   Overcast
10:47 AM 51.8 °F - 39.2 °F 62% 30.10 in 15.0 mi Calm Calm - N/A   Overcast
1:55 PM 55.4 °F - 39.2 °F 54% 30.05 in 15.0 mi Calm Calm - N/A   Overcast
2:55 PM 55.4 °F - 37.4 °F 51% 30.05 in 15.0 mi Calm Calm - N/A   Overcast
4:55 PM 51.8 °F - 39.2 °F 62% 30.04 in 15.0 mi East 3.5 mph - N/A   Overcast
5:53 PM 48.2 °F - 37.4 °F 66% 30.05 in 15.0 mi East 3.5 mph - N/A   Overcast
6:54 PM 46.4 °F 44.3 °F 37.4 °F 71% 30.06 in 15.0 mi SE 4.6 mph - N/A   Overcast
7:57 PM 46.4 °F 44.3 °F 37.4 °F 71% 30.04 in 15.0 mi ESE 4.6 mph - N/A   Mostly Cloudy
8:55 PM 42.8 °F 40.1 °F 37.4 °F 81% 30.03 in 15.0 mi SE 4.6 mph - N/A   Mostly Cloudy
9:15 PM 44.6 °F 40.7 °F 37.4 °F 76% 30.02 in 10.0 mi SE 6.9 mph - N/A   Clear
9:35 PM 44.6 °F 40.7 °F 35.6 °F 71% 30.02 in 10.0 mi SE 6.9 mph - N/A   Clear
9:55 PM 44.6 °F 42.2 °F 35.6 °F 71% 30.02 in 10.0 mi NW 4.6 mph - N/A   Clear
10:15 PM 46.4 °F 44.3 °F 35.6 °F 66% 30.01 in 10.0 mi East 4.6 mph - N/A   Clear
10:35 PM 44.6 °F 39.2 °F 35.6 °F 71% 30.01 in 10.0 mi SE 10.4 mph - N/A   Clear
10:55 PM 48.2 °F - 33.8 °F 58% 30.01 in 10.0 mi SSE 15.0 mph - N/A   Clear
11:15 PM 46.4 °F 41.9 °F 33.8 °F 62% 30.02 in 10.0 mi SE 9.2 mph - N/A   Clear
11:35 PM 46.4 °F 41.9 °F 33.8 °F 62% 30.03 in 10.0 mi East 9.2 mph - N/A   Clear
11:55 PM 46.4 °F 41.1 °F 33.8 °F 62% 30.03 in 10.0 mi ESE 11.5 mph - N/A   Clear